Tracking 19146 objects as of 23-Apr-2018
HD Live streaming from Space Station
objects crossing your sky now

FENGYUN 1C DEB

Track FENGYUN 1C DEB now!
10-day predictions


NORAD ID: 29945
Int'l Code: 1999-025JT
Perigee: 862.8 km
Apogee: 907.2 km
Inclination: 99.1 °
Period: 102.5 minutes
Semi major axis: 7255 km
RCS: 0.6272 m2 (medium)
Launch date: May 10, 1999
Source: People's Republic of China (PRC)
Launch site: Taiyaun Space Center, China (TSC)

Note: This is SATELLITE DEBRIS
aabbcc
Your satellite tracking list
Your tracking list is empty




NASA's NSSDC Master Catalog

Two Line Element Set (TLE):
1 29945U 99025JT  18112.92427278 +.00000182 +00000-0 +14157-3 0  9990
2 29945 099.1065 136.9893 0030554 224.7284 201.5117 14.04615362577914
Source of the keplerian elements: AFSPC